This is the latest recevied weather packets stored in our database for station/object OH6GKW. If no packets are shown the sender has not sent any weather packets the latest 10 day(s).
| Time | Temp. | Humidity | Pressure | Rain* | Wind** | Luminosity | Snow |
|---|---|---|---|---|---|---|---|
| 1777888726 | 10° C | 36% | 999.3 hPa | 0 mm | - | 366 W/m² | - |
| 1777888421 | 10° C | 36% | 999.3 hPa | 0 mm | - | 391 W/m² | - |
| 1777888116 | 10° C | 37% | 999.3 hPa | 0 mm | - | 433 W/m² | - |
| 1777887809 | 10° C | 37% | 999.6 hPa | 0 mm | - | 392 W/m² | - |
| 1777887532 | 10° C | 37% | 999.6 hPa | 0 mm | - | 355 W/m² | - |
| 1777887230 | 10° C | 37% | 999.6 hPa | 0 mm | - | 324 W/m² | - |
| 1777886919 | 10° C | 38% | 1000 hPa | 0 mm | - | 364 W/m² | - |
| 1777886614 | 10° C | 37% | 1000 hPa | 0 mm | - | 413 W/m² | - |
| 1777886327 | 9.44° C | 38% | 1000 hPa | 0 mm | - | 413 W/m² | - |
| 1777886023 | 9.44° C | 38% | 1000.2 hPa | 0 mm | - | 449 W/m² | - |
| 1777885715 | 10° C | 37% | 1000.2 hPa | 0 mm | - | 429 W/m² | - |
| 1777885410 | 10° C | 39% | 1000.2 hPa | 0 mm | - | 375 W/m² | - |
| 1777885124 | 10° C | 37% | 1000.5 hPa | 0 mm | - | 413 W/m² | - |
| 1777884829 | 10° C | 37% | 1000.5 hPa | 0 mm | - | 616 W/m² | - |
| 1777884539 | 9.44° C | 38% | 1000.5 hPa | 0 mm | - | 560 W/m² | - |
| 1777884232 | 9.44° C | 38% | 1000.6 hPa | 0 mm | - | 545 W/m² | - |
| 1777883924 | 9.44° C | 40% | 1000.6 hPa | 0 mm | - | 591 W/m² | - |
| 1777883618 | 9.44° C | 39% | 1000.6 hPa | 0 mm | - | 593 W/m² | - |
| 1777883327 | 10° C | 39% | 1000.9 hPa | 0 mm | - | 614 W/m² | - |
| 1777883018 | 9.44° C | 40% | 1000.9 hPa | 0 mm | - | 639 W/m² | - |
| 1777882710 | 9.44° C | 40% | 1000.9 hPa | 0 mm | - | 619 W/m² | - |
| 1777882434 | 9.44° C | 41% | 1001 hPa | 0 mm | - | 656 W/m² | - |
| 1777882129 | 9.44° C | 42% | 1001 hPa | 0 mm | - | 646 W/m² | - |
| 1777881826 | 9.44° C | 40% | 1001 hPa | 0 mm | - | 554 W/m² | - |
| 1777881517 | 8.89° C | 42% | 1001.2 hPa | 0 mm | - | 510 W/m² | - |
* Rain since midnight (hover to see other rain measurements)
** Current wind speed in m/s (hover to see current wind gust speed)